Flag for USA

Past Weather in Livingston, Texas, USA — Yesterday and Last 2 Weeks

Now
72 °F

Clear.


Feels Like: 73 °F
Forecast: 84 / 68 °F
Wind: 8 mph from Northeast

Location: Angelina County Airport
Current Time: Sep 19, 2020 at 1:59:09 am
Latest Report: Sep 19, 2020 at 12:53 am
Visibility: 10 mi
Pressure30.03 "Hg
Humidity: 76%
Dew Point: 64 °F
Location of LivingstonLocation

Past Weather in Livingston — Graph

°F

Livingston Temperature Yesterday

Maximum temperature yesterday: 88 °F (at 3:53 pm)
Minimum temperature yesterday: 70 °F (at 5:53 am)
Average temperature yesterday: 78 °F

High & Low Weather Summary for the Past Weeks

 TemperatureHumidityPressure
High94 °F (Sep 6, 4:53 pm)94% (Sep 3, 11:53 pm)30.22 "Hg (Sep 3, 11:53 pm)
Low68 °F (Sep 7, 6:53 am)36% (Sep 6, 2:53 pm)29.81 "Hg (Sep 7, 4:53 pm)
Average79 °F76%30.00 "Hg
* Reported Sep 3 11:53 pm — Sep 18 11:53 pm, Livingston. Weather by CustomWeather, © 2020

Note: Actual official high and low records may vary slightly from our data, if they occured in-between our weather recording intervals... More about our weather records

Livingston Weather History for the Previous 24 Hours

Scroll right to see more
 ConditionsComfort  
Time TempWeatherWind HumidityBarometerVisibility
11:53 pm
Fri, Sep 18
74 °FClear.10 mph71%30.03 "Hg10 mi
10:53 pm75 °FClear.7 mph69%30.04 "Hg10 mi
9:53 pm76 °FClear.7 mph67%30.03 "Hg10 mi
8:53 pm76 °FClear.5 mph64%30.02 "Hg10 mi
7:53 pm79 °FClear.5 mph54%30.00 "Hg10 mi
6:53 pm82 °FPassing clouds.7 mph48%29.98 "Hg10 mi
5:53 pm85 °FSunny.8 mph42%29.97 "Hg10 mi
4:53 pm86 °FSunny.7 mph39%29.97 "Hg10 mi
3:53 pm88 °FSunny.13 mph38%29.98 "Hg10 mi
2:53 pm87 °FPassing clouds.12 mph39%29.98 "Hg10 mi
1:53 pm87 °FSunny.12 mph39%30.01 "Hg10 mi
12:53 pm86 °FSunny.10 mph43%30.03 "Hg10 mi
11:53 am84 °FSunny.10 mph46%30.05 "Hg10 mi
10:53 am82 °FSunny.10 mph55%30.06 "Hg10 mi
9:53 am77 °FSunny.7 mph64%30.04 "Hg10 mi
8:53 am74 °FSunny.9 mph74%30.02 "Hg10 mi
7:53 am71 °FSunny.6 mph81%30.01 "Hg10 mi
6:53 am70 °FClear.6 mph84%29.98 "Hg10 mi
5:53 am70 °FClear.7 mph90%29.98 "Hg10 mi
4:53 am71 °FClear.5 mph90%29.97 "Hg9 mi
3:53 am72 °FClear.5 mph91%29.97 "Hg10 mi
2:53 am72 °FClear.5 mph91%29.97 "Hg10 mi
1:53 am73 °FClear.3 mph88%29.97 "Hg10 mi
Weather by CustomWeather, © 2020

See weather overview